FW8459 Weather Reports


time (UTC)temp
F
wind
direction
speed
knots
gust
knots
rain 1hr
in
rain 24hr
in
rain mn
in
humidity
%
barometer
mb
20260902070232 68 232 4.3 6.1 0.00 0.00 0.00 51 1016.4
20260902065731 68 191 2.6 4.3 0.00 0.00 0.00 51 1016.4
20260902065227 68 73 2.6 4.3 0.00 0.00 0.00 51 1016.4
20260902064722 69 319 1.7 1.7 0.00 0.00 0.00 51 1016.2
20260902064218 69 224 2.6 4.3 0.00 0.00 0.00 52 1016.5
20260902063714 69 233 1.7 1.7 0.00 0.00 0.00 54 1016.4
20260902063208 69 170 1.7 2.6 0.00 0.00 0.00 56 1016.4
20260902062708 69 236 1.7 1.7 0.00 0.00 0.00 56 1016.2
20260902062203 69 4 0.9 0.9 0.00 0.00 0.00 55 1016.4
20260902061701 69 247 0.0 0.9 0.00 0.00 0.00 54 1016.4
20260902061157 69 166 0.0 0.9 0.00 0.00 0.00 54 1016.5
20260902060654 70 260 0.9 1.7 0.00 0.00 0.00 53 1016.4
20260902060150 70 182 2.6 4.3 0.00 0.00 0.00 52 1016.6
20260902055645 70 218 2.6 2.6 0.00 0.00 0.00 53 1016.5
20260902055141 69 251 0.9 0.9 0.00 0.00 0.00 53 1016.3
20260902054636 70 133 1.7 2.6 0.00 0.00 0.00 52 1016.4
20260902054131 71 159 1.7 2.6 0.00 0.00 0.00 51 1016.4
20260902053627 70 184 2.6 4.3 0.00 0.00 0.00 52 1016.4
20260902053121 70 247 1.7 1.7 0.00 0.00 0.00 52 1016.5
20260902052621 70 246 3.5 5.2 0.00 0.00 0.00 51 1016.4
20260902052117 70 189 1.7 4.3 0.00 0.00 0.00 52 1016.4
20260902051616 71 147 1.7 1.7 0.00 0.00 0.00 50 1016.4
20260902051115 72 196 1.7 1.7 0.00 0.00 0.00 50 1016.5
20260902050610 72 170 1.7 2.6 0.00 0.00 0.00 50 1016.3
20260902050105 73 151 2.6 4.3 0.00 0.00 0.00 49 1016.6
20260902045601 73 312 2.6 4.3 0.00 0.00 0.00 48 1016.5
20260902045057 73 315 3.5 6.1 0.00 0.00 0.00 50 1016.2
20260902044556 72 76 3.5 7.8 0.00 0.00 0.00 52 1016.4
20260902044052 72 223 3.5 5.2 0.00 0.00 0.00 52 1016.2
20260902043548 71 70 0.9 1.7 0.00 0.00 0.00 53 1016.6
20260902043043 71 188 2.6 2.6 0.00 0.00 0.00 53 1016.4
20260902042542 73 266 3.5 4.3 0.00 0.00 0.00 50 1016.5
20260902042037 72 241 0.9 0.9 0.00 0.00 0.00 52 1016.6
20260902041532 73 71 0.9 1.7 0.00 0.00 0.00 50 1016.6
20260902041027 74 191 4.3 5.2 0.00 0.00 0.00 49 1016.5
20260902040526 74 303 1.7 1.7 0.00 0.00 0.00 49 1016.4
20260902040027 73 251 2.6 2.6 0.00 0.00 0.00 49 1016.7
20260902035520 73 219 1.7 1.7 0.00 0.00 0.00 50 1016.6
20260902035016 73 244 2.6 4.3 0.00 0.00 0.00 50 1016.7
20260902034515 73 36 1.7 2.6 0.00 0.00 0.00 50 1016.6
20260902034014 73 23 2.6 4.3 0.00 0.00 0.00 49 1017.0
20260902033513 74 191 2.6 2.6 0.00 0.00 0.00 48 1017.1
20260902033008 73 285 4.3 5.2 0.00 0.00 0.00 49 1017.0
20260902032502 73 171 1.7 1.7 0.00 0.00 0.00 49 1017.3
20260902031956 73 286 1.7 2.6 0.00 0.00 0.00 48 1017.3
20260902031452 73 35 0.9 1.7 0.00 0.00 0.00 48 1017.2
20260902030948 73 353 2.6 2.6 0.00 0.00 0.00 46 1017.3
20260902030448 73 343 2.6 5.2 0.00 0.00 0.00 46 1017.4
20260902025946 73 124 1.7 2.6 0.00 0.00 0.00 47 1017.5
20260902025442 72 187 0.9 1.7 0.00 0.00 0.00 47 1017.7
20260902024937 71 171 2.6 6.1 0.00 0.00 0.00 49 1017.6
20260902024432 72 249 4.3 7.0 0.00 0.00 0.00 48 1017.8
20260902023927 72 285 0.9 1.7 0.00 0.00 0.00 48 1017.9
20260902023424 72 62 2.6 2.6 0.00 0.00 0.00 49 1018.0
20260902022922 72 243 0.9 1.7 0.00 0.00 0.00 50 1017.9
20260902022417 72 224 0.9 0.9 0.00 0.00 0.00 50 1018.1
20260902021914 72 285 0.9 0.9 0.00 0.00 0.00 52 1018.1
20260902021413 71 174 2.6 4.3 0.00 0.00 0.00 51 1018.4
20260902020909 72 329 0.9 0.9 0.00 0.00 0.00 51 1018.6
20260902020405 72 202 3.5 6.1 0.00 0.00 0.00 52 1018.7
20260902015900 72 285 1.7 4.3 0.00 0.00 0.00 53 1018.8
20260902015355 70 5 0.9 1.7 0.00 0.00 0.00 54 1018.6
20260902014851 70 67 1.7 2.6 0.00 0.00 0.00 54 1018.8
20260902014348 70 107 2.6 2.6 0.00 0.00 0.00 53 1018.8
20260902013847 71 125 1.7 2.6 0.00 0.00 0.00 54 1018.8
20260902013342 70 245 1.7 2.6 0.00 0.00 0.00 55 1019.0
20260902012838 71 142 1.7 2.6 0.00 0.00 0.00 54 1019.2
20260902012334 71 158 0.9 1.7 0.00 0.00 0.00 55 1019.2
20260902011829 71 244 1.7 1.7 0.00 0.00 0.00 54 1019.1
20260902011324 71 348 0.9 1.7 0.00 0.00 0.00 56 1019.0
20260902010823 71 187 1.7 2.6 0.00 0.00 0.00 56 1019.1
20260902010318 69 193 3.5 6.1 0.00 0.00 0.00 56 1019.3
20260902005817 70 189 3.5 4.3 0.00 0.00 0.00 55 1019.3
20260902005312 69 359 1.7 1.7 0.00 0.00 0.00 57 1019.3
20260902004807 69 42 0.9 0.9 0.00 0.00 0.00 57 1019.4
20260902004302 69 306 1.7 1.7 0.00 0.00 0.00 57 1019.4
20260902003756 68 231 0.9 0.9 0.00 0.00 0.00 60 1019.5
20260902003252 69 43 0.9 0.9 0.00 0.00 0.00 58 1019.6
20260902002748 68 59 0.9 0.9 0.00 0.00 0.00 60 1019.7
20260902002247 69 246 2.6 2.6 0.00 0.00 0.00 58 1019.7
20260902001743 68 221 0.9 0.9 0.00 0.00 0.00 60 1019.5
20260902001238 67 75 2.6 4.3 0.00 0.00 0.00 60 1019.7
20260902000738 68 257 2.6 4.3 0.00 0.00 0.00 59 1019.7
20260902000233 68 261 1.7 1.7 0.00 0.00 0.00 60 1019.6
20260901235727 67 149 1.7 2.6 0.00 0.00 0.00 61 1019.7
20260901235222 66 130 1.7 1.7 0.00 0.00 0.00 61 1019.6
20260901234722 66 265 3.5 5.2 0.00 0.00 0.00 61 1019.5
20260901234222 67 179 2.6 4.3 0.00 0.00 0.00 60 1019.8
20260901233716 66 28 0.9 0.9 0.00 0.00 0.00 63 1019.7
20260901233213 66 253 0.9 1.7 0.00 0.00 0.00 63 1019.5
20260901232713 65 212 2.6 2.6 0.00 0.00 0.00 64 1019.7
20260901232208 64 26 1.7 2.6 0.00 0.00 0.00 64 1019.9
20260901231704 65 153 2.6 2.6 0.00 0.00 0.00 63 1019.9
20260901231200 64 201 1.7 1.7 0.00 0.00 0.00 64 1019.9
20260901230656 64 172 3.5 6.1 0.00 0.00 0.00 67 1019.7
20260901230155 63 82 3.5 5.2 0.00 0.00 0.00 66 1020.0
20260901225651 63 205 1.7 4.3 0.00 0.00 0.00 68 1020.0
20260901225145 62 157 0.9 1.7 0.00 0.00 0.00 69 1019.8
20260901224641 61 189 0.9 1.7 0.00 0.00 0.00 70 1019.9
20260901224137 61 274 0.0 0.0 0.00 0.00 0.00 71 1019.9
20260901223632 61 282 0.9 0.9 0.00 0.00 0.00 71 1019.9
20260901223128 60 238 0.9 0.9 0.00 0.00 0.00 74 1019.9
20260901222624 59 301 1.7 1.7 0.00 0.00 0.00 75 1020.2
20260901222120 59 309 0.9 1.7 0.00 0.00 0.00 76 1020.2
20260901221615 58 75 0.9 1.7 0.00 0.00 0.00 78 1020.0
20260901221111 58 139 0.9 1.7 0.00 0.00 0.00 79 1020.0
20260901220610 57 287 0.9 1.7 0.00 0.00 0.00 80 1019.8
20260901220109 57 321 0.0 0.9 0.00 0.00 0.00 82 1019.7
20260901215608 57 307 0.0 0.0 0.00 0.00 0.00 82 1020.0
20260901215102 56 305 0.0 0.0 0.00 0.00 0.00 82 1019.9
20260901214601 56 307 0.0 0.0 0.00 0.00 0.00 82 1020.2
20260901214055 56 284 0.0 0.0 0.00 0.00 0.00 82 1020.0
20260901213555 56 75 0.0 0.9 0.00 0.00 0.00 82 1019.8
20260901213049 56 32 0.9 0.9 0.00 0.00 0.00 83 1019.7
20260901212543 55 14 0.9 0.9 0.00 0.00 0.00 87 1019.8
20260901212040 54 331 0.0 0.0 0.00 0.00 0.00 88 1019.7
20260901211535 54 289 0.0 0.0 0.00 0.00 0.00 88 1019.5
20260901211032 53 252 0.0 0.9 0.00 0.00 0.00 88 1019.5
20260901210526 53 288 0.0 0.0 0.00 0.00 0.00 88 1019.4
20260901210023 53 316 0.0 0.0 0.00 0.00 0.00 89 1019.5
20260901205518 53 295 0.0 0.0 0.00 0.00 0.00 89 1019.4
20260901205018 53 273 0.0 0.0 0.00 0.00 0.00 89 1019.3
20260901204514 53 318 0.0 0.0 0.00 0.00 0.00 89 1019.2
20260901204009 53 309 0.0 0.0 0.00 0.00 0.00 89 1019.2
20260901203503 53 246 0.0 0.9 0.00 0.00 0.00 88 1019.4
20260901202958 53 275 0.0 0.0 0.00 0.00 0.00 88 1019.4
20260901202454 53 108 0.0 0.9 0.00 0.00 0.00 88 1019.1
20260901201949 53 342 0.0 0.0 0.00 0.00 0.00 88 1019.3
20260901201443 53 320 0.0 0.0 0.00 0.00 0.00 88 1019.1
20260901200938 53 258 0.0 0.9 0.00 0.00 0.00 87 1019.2
20260901200433 53 9 0.0 0.9 0.00 0.00 0.00 87 1019.1
20260901195932 53 305 0.0 0.0 0.00 0.00 0.00 87 1019.3
20260901195431 53 195 0.9 1.7 0.00 0.00 0.00 87 1019.6
20260901194926 53 329 0.9 1.7 0.00 0.00 0.00 87 1019.2
20260901194420 53 293 0.0 0.0 0.00 0.00 0.00 87 1019.6
20260901193917 53 34 0.9 1.7 0.00 0.00 0.00 87 1019.3
20260901193416 53 356 0.0 0.9 0.00 0.00 0.00 87 1019.4
20260901192916 54 298 0.0 0.0 0.00 0.00 0.00 87 1019.5
20260901192412 54 338 1.7 2.6 0.00 0.00 0.00 86 1019.5
20260901191908 54 261 0.9 1.7 0.00 0.00 0.00 85 1019.6
20260901191403 55 242 0.9 0.9 0.00 0.00 0.00 84 1019.5
20260901190858 55 45 0.9 0.9 0.00 0.00 0.00 82 1020.2
20260901190353 55 179 0.9 1.7 0.00 0.00 0.00 80 1020.2
20260901185851 55 238 0.9 2.6 0.00 0.00 0.00 80 1020.0
20260901185350 55 120 0.9 1.7 0.00 0.00 0.00 80 1019.8
20260901184845 55 89 0.9 0.9 0.00 0.00 0.00 79 1019.6
20260901184341 55 139 1.7 1.7 0.00 0.00 0.00 80 1019.3
20260901183836 55 287 0.0 0.9 0.00 0.00 0.00 80 1019.2
20260901183335 54 252 0.0 0.9 0.00 0.00 0.00 81 1019.0
20260901182832 54 328 0.9 1.7 0.00 0.00 0.00 82 1019.0
20260901182332 54 285 0.0 0.0 0.00 0.00 0.00 82 1019.0
20260901181827 53 213 0.9 1.7 0.00 0.00 0.00 84 1019.0
20260901181321 52 256 0.9 0.9 0.00 0.00 0.00 87 1019.0
20260901180815 51 189 0.9 0.9 0.00 0.00 0.00 91 1018.9
20260901180314 50 191 0.0 0.0 0.00 0.00 0.00 92 1019.2
20260901175813 49 309 0.0 0.0 0.00 0.00 0.00 92 1019.0
20260901175308 49 292 0.0 0.0 0.00 0.00 0.00 91 1019.1
20260901174803 49 291 0.0 0.0 0.00 0.00 0.00 91 1019.0
20260901174259 49 290 0.0 0.0 0.00 0.00 0.00 90 1019.0
20260901173754 49 279 0.0 0.0 0.00 0.00 0.00 90 1019.1
20260901173249 49 294 0.0 0.0 0.00 0.00 0.00 90 1018.8
20260901172746 50 291 0.0 0.0 0.00 0.00 0.00 90 1018.8
20260901172244 50 279 0.0 0.0 0.00 0.00 0.00 90 1019.0
20260901171743 50 224 0.0 0.9 0.00 0.00 0.00 89 1018.9
20260901171242 50 237 0.0 0.9 0.00 0.00 0.00 88 1018.9
20260901170741 50 280 0.0 0.0 0.00 0.00 0.00 87 1019.2
20260901170236 51 291 0.0 0.0 0.00 0.00 0.00 87 1019.2
20260901165735 51 265 0.0 0.0 0.00 0.00 0.00 86 1019.2
20260901165235 52 256 0.0 0.0 0.00 0.00 0.00 86 1019.2
20260901164731 52 247 0.9 0.9 0.00 0.00 0.00 86 1019.2
20260901164226 53 206 0.9 0.9 0.00 0.00 0.00 85 1019.3
20260901163721 53 255 0.0 0.0 0.00 0.00 0.00 86 1019.1
20260901163221 53 290 0.0 0.0 0.00 0.00 0.00 87 1019.2
20260901162716 52 314 0.0 0.0 0.00 0.00 0.00 90 1019.5
20260901162215 51 16 0.0 0.9 0.00 0.00 0.00 94 1019.5
20260901161714 50 320 0.0 0.9 0.00 0.00 0.00 97 1019.5
20260901161209 47 135 1.7 2.6 0.00 0.00 0.00 99 1019.7
20260901160706 44 305 0.0 0.0 0.00 0.00 0.00 97 1019.8
20260901160201 44 273 0.0 0.0 0.00 0.00 0.00 97 1020.2
20260901155659 44 240 0.0 0.9 0.00 0.00 0.00 97 1020.0
20260901155155 44 291 0.0 0.0 0.00 0.00 0.00 96 1019.9
20260901154650 44 298 0.0 0.0 0.00 0.00 0.00 96 1020.0
20260901154145 44 292 0.0 0.0 0.00 0.00 0.00 96 1020.2
20260901153640 45 299 0.0 0.0 0.00 0.00 0.00 96 1020.2
20260901153139 45 258 0.0 0.0 0.00 0.00 0.00 96 1020.5
20260901152634 45 280 0.0 0.0 0.00 0.00 0.00 96 1020.2
20260901152127 45 264 0.0 0.0 0.00 0.00 0.00 96 1020.3
20260901151623 46 274 0.0 0.0 0.00 0.00 0.00 96 1020.3
20260901151122 46 248 0.0 0.0 0.00 0.00 0.00 96 1020.5
20260901150621 46 278 0.0 0.0 0.00 0.00 0.00 96 1020.0
20260901150114 46 297 0.0 0.0 0.00 0.00 0.00 96 1020.4
20260901145613 46 299 0.0 0.0 0.00 0.00 0.00 96 1020.5
20260901145112 46 229 0.9 0.9 0.00 0.00 0.00 96 1020.6
20260901144608 46 283 0.0 0.0 0.00 0.00 0.00 96 1020.6
20260901144103 45 289 0.0 0.0 0.00 0.00 0.00 96 1020.5
20260901143558 45 309 0.0 0.0 0.00 0.00 0.00 96 1020.5
20260901143054 45 266 0.0 0.0 0.00 0.00 0.00 96 1020.7
20260901142550 45 282 0.0 0.0 0.00 0.00 0.00 95 1020.9
20260901142049 45 238 0.9 0.9 0.00 0.00 0.00 95 1020.7
20260901141544 45 304 0.0 0.0 0.00 0.00 0.00 95 1021.0
20260901141039 45 273 0.0 0.0 0.00 0.00 0.00 95 1021.0
20260901140538 46 269 0.0 0.0 0.00 0.00 0.00 95 1020.8
20260901140032 46 296 0.0 0.0 0.00 0.00 0.00 95 1021.0
20260901135531 46 279 0.0 0.0 0.00 0.00 0.00 95 1021.3
20260901135027 46 263 0.0 0.0 0.00 0.00 0.00 95 1021.0
20260901134523 46 278 0.0 0.0 0.00 0.00 0.00 95 1021.2
20260901134023 46 248 0.0 0.9 0.00 0.00 0.00 95 1021.2
20260901133522 46 266 0.0 0.9 0.00 0.00 0.00 95 1020.9
20260901133021 46 249 0.0 0.9 0.00 0.00 0.00 94 1021.1
20260901132515 46 245 0.0 0.0 0.00 0.00 0.00 94 1021.2
20260901132014 46 252 0.0 0.9 0.00 0.00 0.00 94 1021.3
20260901131509 46 262 0.0 0.0 0.00 0.00 0.00 94 1021.3
20260901131005 46 281 0.0 0.0 0.00 0.00 0.00 94 1021.5
20260901130459 46 240 0.0 0.0 0.00 0.00 0.00 94 1021.6
20260901125956 46 266 0.0 0.0 0.00 0.00 0.00 93 1021.4
20260901125456 46 262 0.0 0.0 0.00 0.00 0.00 93 1021.3
20260901124951 46 274 0.0 0.9 0.00 0.00 0.00 93 1021.3
20260901124446 46 260 0.0 0.0 0.00 0.00 0.00 93 1021.2
20260901123941 46 278 0.0 0.0 0.00 0.00 0.00 92 1021.5
20260901123436 47 254 0.0 0.0 0.00 0.00 0.00 92 1021.4
20260901122934 47 278 0.0 0.0 0.00 0.00 0.00 92 1021.2
20260901122434 47 254 0.0 0.0 0.00 0.00 0.00 92 1021.4
20260901121933 47 261 0.0 0.0 0.00 0.00 0.00 91 1021.4
20260901121428 47 284 0.0 0.0 0.00 0.00 0.00 91 1021.4
20260901120923 48 272 0.0 0.0 0.00 0.00 0.00 91 1021.6
20260901120423 48 284 0.0 0.0 0.00 0.00 0.00 91 1021.5
20260901115919 48 275 0.0 0.0 0.00 0.00 0.00 91 1021.6
20260901115418 48 278 0.0 0.0 0.00 0.00 0.00 90 1021.9
20260901114916 49 276 0.0 0.0 0.00 0.00 0.00 90 1022.0
20260901114412 49 282 0.0 0.0 0.00 0.00 0.00 90 1022.2
20260901113910 49 281 0.0 0.0 0.00 0.00 0.00 90 1021.9
20260901113409 49 276 0.0 0.0 0.00 0.00 0.00 90 1022.0
20260901112904 49 276 0.0 0.0 0.00 0.00 0.00 90 1022.1
20260901112359 50 280 0.0 0.0 0.00 0.00 0.00 90 1022.1
20260901111854 50 280 0.0 0.0 0.00 0.00 0.00 90 1022.3
20260901111352 50 285 0.0 0.0 0.00 0.00 0.00 90 1022.2
20260901110851 50 270 0.0 0.0 0.00 0.00 0.00 90 1022.1
20260901110347 50 281 0.0 0.0 0.00 0.00 0.00 89 1022.1
20260901105843 50 276 0.0 0.0 0.00 0.00 0.00 89 1022.2
20260901105338 50 273 0.0 0.0 0.00 0.00 0.00 89 1022.3
20260901104834 50 296 0.0 0.0 0.00 0.00 0.00 89 1022.3
20260901104330 51 291 0.0 0.0 0.00 0.00 0.00 88 1022.3
20260901103825 51 295 0.0 0.0 0.00 0.00 0.00 88 1022.6
20260901103324 51 248 0.0 0.0 0.00 0.00 0.00 88 1022.5
20260901102820 51 286 0.0 0.0 0.00 0.00 0.00 87 1022.3
20260901102314 51 277 0.0 0.0 0.00 0.00 0.00 87 1022.6
20260901101810 51 215 0.0 0.9 0.00 0.00 0.00 87 1022.7
20260901101309 51 225 0.0 0.9 0.00 0.00 0.00 87 1022.5
20260901100809 51 248 0.0 0.0 0.00 0.00 0.00 86 1022.6
20260901100304 51 272 0.0 0.0 0.00 0.00 0.00 85 1022.7
20260901095802 52 289 0.0 0.0 0.00 0.00 0.00 85 1022.7
20260901095300 52 207 0.9 0.9 0.00 0.00 0.00 85 1022.7
20260901094754 53 269 0.0 0.0 0.00 0.00 0.00 84 1022.8
20260901094249 53 266 0.0 0.9 0.00 0.00 0.00 84 1022.5
20260901093745 53 255 0.0 0.0 0.00 0.00 0.00 83 1022.7
20260901093243 54 263 0.0 0.0 0.00 0.00 0.00 82 1022.5
20260901092740 54 266 0.0 0.0 0.00 0.00 0.00 82 1022.7
20260901092235 55 265 0.0 0.0 0.00 0.00 0.00 82 1022.6
20260901091731 55 246 0.0 0.0 0.00 0.00 0.00 81 1022.5
20260901091226 55 252 0.0 0.0 0.00 0.00 0.00 80 1022.5
20260901090721 55 273 0.0 0.0 0.00 0.00 0.00 79 1022.5
20260901090216 56 271 0.0 0.0 0.00 0.00 0.00 78 1022.4
20260901085712 56 267 0.0 0.0 0.00 0.00 0.00 78 1022.4
20260901085207 57 269 0.0 0.0 0.00 0.00 0.00 77 1022.6
20260901084703 57 280 0.0 0.0 0.00 0.00 0.00 76 1022.4
20260901084200 58 293 0.0 0.0 0.00 0.00 0.00 75 1022.3
20260901083659 59 306 0.0 0.0 0.00 0.00 0.00 74 1022.2
20260901083158 59 288 0.0 0.0 0.00 0.00 0.00 74 1022.0
20260901082652 59 51 0.9 4.3 0.00 0.00 0.00 74 1022.2
20260901082148 59 325 0.0 0.0 0.00 0.00 0.00 73 1022.2
20260901081643 59 306 0.0 0.0 0.00 0.00 0.00 72 1022.3
20260901081142 60 247 0.0 0.0 0.00 0.00 0.00 72 1022.1
20260901080637 60 341 0.0 0.0 0.00 0.00 0.00 71 1022.0
20260901080136 59 169 0.0 0.9 0.00 0.00 0.00 71 1022.2
20260901075631 60 238 0.0 0.0 0.00 0.00 0.00 71 1022.1
20260901075131 60 219 0.0 0.0 0.00 0.00 0.00 70 1022.4
20260901074630 61 256 0.0 0.9 0.00 0.00 0.00 69 1022.2
20260901074126 61 255 0.0 0.9 0.00 0.00 0.00 68 1022.0
20260901073622 62 235 0.0 0.0 0.00 0.00 0.00 66 1021.9
20260901073118 62 224 0.9 0.9 0.00 0.00 0.00 65 1022.0
20260901072613 62 171 0.9 0.9 0.00 0.00 0.00 64 1022.2
20260901072108 62 356 0.9 2.6 0.00 0.00 0.00 65 1022.2
20260901071607 63 193 0.9 0.9 0.00 0.00 0.00 66 1022.3
20260901071107 63 164 0.0 0.9 0.00 0.00 0.00 66 1021.9
20260901070601 64 245 0.0 0.9 0.00 0.00 0.00 65 1022.4